F4ELU-13 Weather Reports


time (UTC)temp
C
wind
direction
speed
KPH
gust
KPH
rain 1hr
cm
rain 24hr
cm
rain mn
cm
humidity
%
barometer
mb
20260507174503 17 46 1.6 9.7 0.00 0.00 0.00 62 1012.5
20260507173603 17 33 0.0 6.4 0.00 0.00 0.00 60 1012.5
20260507172703 17 50 1.6 6.4 0.00 0.00 0.00 61 1012.5
20260507171803 17 62 0.0 6.4 0.00 0.00 0.00 55 1012.4
20260507170903 17 72 1.6 6.4 0.00 0.00 0.00 55 1012.5
20260507170003 18 77 0.0 3.2 0.00 0.00 0.00 56 1012.6
20260507165403 17 47 0.0 9.7 0.00 0.00 0.00 54 1012.7
20260507164503 18 67 1.6 6.4 0.00 0.00 0.00 54 1012.7
20260507163603 18 31 1.6 11.3 0.00 0.00 0.00 53 1012.7
20260507162703 18 79 4.8 9.7 0.00 0.00 0.00 57 1012.8
20260507161803 18 69 1.6 9.7 0.00 0.00 0.00 54 1012.7
20260507160903 17 30 3.2 6.4 0.00 0.00 0.00 55 1012.8
20260507160003 18 30 3.2 6.4 0.00 0.00 0.00 54 1012.8
20260507155403 18 74 1.6 6.4 0.00 0.00 0.00 55 1012.9
20260507154503 18 51 0.0 9.7 0.00 0.00 0.00 56 1012.8
20260507153603 18 48 1.6 6.4 0.00 0.00 0.00 57 1012.8
20260507152703 17 38 3.2 6.4 0.00 0.00 0.00 58 1013.0
20260507151803 17 26 0.0 6.4 0.00 0.00 0.00 56 1013.1
20260507150903 18 16 0.0 6.4 0.00 0.03 0.00 56 1013.0
20260507150003 18 32 1.6 9.7 0.00 0.03 0.00 56 1013.0
20260507145403 17 46 3.2 9.7 0.00 0.33 0.00 60 1013.1
20260507144503 17 27 0.0 9.7 0.00 0.71 0.00 62 1013.2
20260507143603 18 31 3.2 9.7 0.00 0.79 0.00 59 1013.2
20260507142703 17 85 0.0 3.2 0.00 0.79 0.00 56 1013.3
20260507141803 17 85 1.6 6.4 0.00 0.79 0.00 57 1013.4
20260507140903 18 124 3.2 11.3 0.00 0.79 0.00 61 1013.4
20260507140003 19 82 4.8 11.3 0.00 0.79 0.00 61 1013.5
20260507135403 18 47 0.0 6.4 0.00 0.79 0.00 57 1013.5
20260507134503 19 147 0.0 6.4 0.00 0.79 0.00 60 1013.6
20260507133603 18 106 0.0 3.2 0.00 0.79 0.00 61 1013.6
20260507132703 18 90 0.0 3.2 0.00 0.79 0.00 62 1013.7
20260507131803 17 56 0.0 3.2 0.00 0.79 0.00 65 1013.7
20260507130903 17 303 0.0 3.2 0.00 0.79 0.00 63 1013.8
20260507130005 17 32 0.0 6.4 0.00 0.79 0.00 62 1013.8
20260507130003 17 32 0.0 6.4 0.00 0.79 0.00 62 1013.8
20260507125459 17 64 0.0 6.4 0.00 0.79 0.00 64 1013.8
20260507125403 17 64 0.0 6.4 0.00 0.79 0.00 64 1013.8
20260507124614 17 103 0.0 6.4 0.00 0.79 0.00 63 1013.8
20260507124503 17 103 0.0 6.4 0.00 0.79 0.00 63 1013.8
20260507123603 18 91 3.2 6.4 0.00 0.79 0.00 61 1013.8
20260507122705 18 101 0.0 9.7 0.00 0.79 0.00 60 1013.8
20260507121803 18 95 6.4 9.7 0.00 0.79 0.00 60 1013.8
20260507120903 17 80 0.0 6.4 0.00 0.79 0.00 59 1013.9
20260507120003 18 110 0.0 9.7 0.00 0.79 0.00 60 1013.8
20260507115403 18 96 0.0 6.4 0.00 0.79 0.00 63 1014.0
20260507114504 17 83 3.2 11.3 0.00 0.79 0.00 62 1014.0
20260507113603 17 192 0.0 6.4 0.00 0.79 0.00 59 1014.1
20260507112703 18 113 1.6 6.4 0.00 0.79 0.00 59 1014.1
20260507111803 16 42 1.6 6.4 0.00 0.79 0.00 62 1014.1
20260507110903 17 26 0.0 6.4 0.00 0.79 0.00 63 1014.2
20260507110003 17 57 1.6 9.7 0.00 0.79 0.00 66 1014.2
20260507105403 17 104 0.0 9.7 0.00 0.79 0.00 66 1014.1
20260507104503 17 132 0.0 3.2 0.00 0.79 0.00 67 1014.3
20260507103603 17 78 0.0 9.7 0.00 0.79 0.00 62 1014.3
20260507102703 16 57 4.8 9.7 0.00 0.79 0.00 70 1014.3
20260507101803 17 50 0.0 6.4 0.00 0.79 0.00 72 1014.3
20260507100903 17 40 0.0 6.4 0.00 0.79 0.00 66 1014.3
20260507100003 16 51 0.0 6.4 0.00 0.79 0.00 72 1014.4
20260507095403 16 13 0.0 3.2 0.00 0.79 0.00 74 1014.4
20260507094503 16 84 0.0 6.4 0.00 0.79 0.00 73 1014.4
20260507093603 16 45 0.0 9.7 0.00 0.79 0.00 72 1014.4
20260507092703 16 92 1.6 9.7 0.00 0.79 0.00 71 1014.5
20260507091803 16 122 0.0 6.4 0.00 0.79 0.00 74 1014.3
20260507090903 15 67 1.6 6.4 0.00 0.79 0.00 79 1014.2
20260507090004 15 27 0.0 3.2 0.00 0.79 0.00 78 1014.3
20260507085403 15 101 0.0 9.7 0.00 0.79 0.00 78 1014.2
20260507084503 15 99 1.6 6.4 0.00 0.79 0.00 79 1014.2
20260507083603 15 127 1.6 6.4 0.00 0.79 0.00 78 1014.1
20260507082703 15 97 0.0 6.4 0.00 0.79 0.00 79 1014.2
20260507081803 15 75 0.0 3.2 0.00 0.79 0.00 78 1014.0
20260507080903 14 56 0.0 3.2 0.00 0.79 0.00 82 1014.0
20260507080003 13 0 0.0 0.0 0.00 0.79 0.00 84 1014.2
20260507075403 13 0 0.0 0.0 0.00 0.79 0.00 86 1014.1
20260507074503 13 0 0.0 0.0 0.00 0.79 0.00 84 1014.1
20260507073603 13 0 0.0 0.0 0.00 0.79 0.00 86 1014.1
20260507072703 13 0 0.0 0.0 0.00 0.79 0.00 84 1014.0
20260507071803 13 0 0.0 0.0 0.00 0.79 0.00 87 1014.0
20260507070903 13 0 0.0 0.0 0.00 0.79 0.00 87 1014.1
20260507070005 12 0 0.0 0.0 0.00 0.79 0.00 91 1013.9
20260507065403 12 0 0.0 0.0 0.00 0.79 0.00 92 1013.8
20260507064503 11 104 0.0 3.2 0.00 0.79 0.00 92 1014.0
20260507063603 11 90 0.0 3.2 0.00 0.79 0.00 99 1013.8
20260507062703 10 0 0.0 0.0 0.00 0.79 0.00 99 1013.7
20260507061803 10 0 0.0 0.0 0.00 0.79 0.00 99 1013.9
20260507060903 10 0 0.0 0.0 0.00 0.79 0.00 99 1013.8
20260507060003 9 0 0.0 0.0 0.00 0.79 0.00 99 1013.8
20260507055403 9 0 0.0 0.0 0.00 0.79 0.00 99 1013.7
20260507054503 9 0 0.0 0.0 0.00 0.81 0.00 99 1013.7
20260507053603 9 0 0.0 0.0 0.00 0.81 0.00 99 1013.5
20260507052703 9 0 0.0 0.0 0.00 0.84 0.00 99 1013.4
20260507051803 8 0 0.0 0.0 0.00 0.84 0.00 99 1013.4
20260507050903 8 0 0.0 0.0 0.00 0.86 0.00 99 1013.3
20260507050003 8 0 0.0 0.0 0.00 0.86 0.00 99 1013.3
20260507045403 8 0 0.0 0.0 0.00 0.86 0.00 99 1013.2
20260507044503 8 0 0.0 0.0 0.00 0.89 0.00 99 1013.0
20260507043603 8 0 0.0 0.0 0.00 0.89 0.00 99 1013.0
20260507042703 8 0 0.0 0.0 0.00 0.89 0.00 99 1013.1
20260507041803 8 0 0.0 0.0 0.00 0.89 0.00 99 1013.0
20260507040903 8 0 0.0 0.0 0.00 0.89 0.00 99 1013.0
20260507040003 8 0 0.0 0.0 0.00 0.89 0.00 99 1013.0
20260507035403 8 0 0.0 0.0 0.00 0.89 0.00 99 1013.0
20260507034503 8 0 0.0 0.0 0.00 0.89 0.00 99 1013.1
20260507033603 8 0 0.0 0.0 0.00 0.89 0.00 99 1012.9
20260507032703 8 0 0.0 0.0 0.00 0.89 0.00 99 1012.9
20260507031803 8 0 0.0 0.0 0.00 0.94 0.00 99 1013.0
20260507030903 8 0 0.0 0.0 0.00 0.94 0.00 99 1012.8
20260507030003 8 0 0.0 0.0 0.00 0.94 0.00 99 1012.9
20260507025403 8 0 0.0 0.0 0.00 0.94 0.00 99 1013.0
20260507024503 8 0 0.0 0.0 0.00 0.94 0.00 99 1013.0
20260507023603 8 0 0.0 0.0 0.00 0.94 0.00 99 1012.7
20260507022703 8 0 0.0 0.0 0.00 0.94 0.00 99 1012.8
20260507021803 8 0 0.0 0.0 0.00 0.94 0.00 99 1012.7
20260507020903 8 0 0.0 0.0 0.00 0.94 0.00 99 1012.8
20260507020003 9 0 0.0 0.0 0.00 0.94 0.00 99 1012.7
20260507015403 9 0 0.0 0.0 0.00 0.94 0.00 99 1012.7
20260507014503 9 0 0.0 0.0 0.00 0.94 0.00 99 1012.6
20260507013603 9 0 0.0 0.0 0.00 0.94 0.00 99 1012.6
20260507012703 9 0 0.0 0.0 0.00 0.94 0.00 99 1012.7
20260507011803 9 0 0.0 0.0 0.00 0.94 0.00 99 1012.6
20260507010903 9 0 0.0 0.0 0.00 0.94 0.00 99 1012.6
20260507010003 9 0 0.0 0.0 0.00 0.94 0.00 99 1012.7
20260507005403 9 0 0.0 0.0 0.00 0.94 0.00 99 1012.7
20260507004503 9 0 0.0 0.0 0.00 0.94 0.00 99 1012.6
20260507003603 9 0 0.0 0.0 0.00 0.94 0.00 99 1012.8
20260507002703 9 0 0.0 0.0 0.00 0.94 0.00 99 1012.7
20260507001803 9 0 0.0 0.0 0.00 0.94 0.00 99 1012.5
20260507000903 9 0 0.0 0.0 0.00 0.94 0.00 99 1012.5
20260507000004 9 0 0.0 0.0 0.00 0.94 0.00 99 1012.5
20260506235403 9 0 0.0 0.0 0.00 0.94 0.00 99 1012.6
20260506234503 9 0 0.0 0.0 0.00 0.94 0.00 99 1012.5
20260506233603 9 0 0.0 0.0 0.00 0.94 0.00 99 1012.5
20260506232703 9 0 0.0 0.0 0.00 0.94 0.00 99 1012.6
20260506231803 9 0 0.0 0.0 0.00 0.94 0.00 99 1012.6
20260506230903 9 0 0.0 0.0 0.00 0.94 0.00 99 1012.5
20260506230003 10 0 0.0 0.0 0.00 0.94 0.00 99 1012.5
20260506225403 10 0 0.0 0.0 0.00 0.94 0.94 99 1012.4
20260506224503 10 0 0.0 0.0 0.00 0.94 0.94 99 1012.4
20260506223603 10 0 0.0 0.0 0.00 0.94 0.94 99 1012.4
20260506222703 10 0 0.0 0.0 0.00 0.94 0.94 99 1012.3
20260506221803 10 0 0.0 0.0 0.00 0.94 0.94 99 1012.1
20260506220903 10 0 0.0 0.0 0.00 0.94 0.94 99 1012.1
20260506220003 10 0 0.0 0.0 0.00 0.94 0.94 99 1012.0
20260506215403 10 0 0.0 0.0 0.00 0.94 0.94 99 1012.0
20260506214503 10 0 0.0 0.0 0.00 0.94 0.94 99 1012.0
20260506213603 10 0 0.0 0.0 0.00 0.94 0.94 99 1012.1
20260506212703 10 0 0.0 0.0 0.00 0.94 0.94 99 1012.0
20260506211803 10 0 0.0 0.0 0.00 0.94 0.94 99 1012.1
20260506210903 10 0 0.0 0.0 0.00 0.94 0.94 99 1012.0
20260506210004 10 0 0.0 0.0 0.00 0.94 0.94 99 1012.0
20260506205403 10 0 0.0 0.0 0.00 0.94 0.94 99 1011.9
20260506204503 10 0 0.0 0.0 0.00 0.94 0.94 99 1012.0
20260506203603 10 0 0.0 0.0 0.00 0.94 0.94 99 1011.9
20260506202703 10 0 0.0 0.0 0.00 0.94 0.94 99 1011.8
20260506201803 10 0 0.0 0.0 0.00 0.94 0.94 99 1011.7
20260506200903 10 0 0.0 0.0 0.00 0.94 0.94 99 1011.5
20260506200003 10 0 0.0 0.0 0.00 0.94 0.94 99 1011.4
20260506195403 10 0 0.0 0.0 0.00 0.94 0.94 99 1011.3
20260506194503 10 0 0.0 0.0 0.00 0.94 0.94 99 1011.3
20260506193603 10 0 0.0 0.0 0.00 0.94 0.94 98 1011.2
20260506192703 11 0 0.0 0.0 0.00 0.94 0.94 98 1011.2
20260506191803 11 0 0.0 0.0 0.00 0.94 0.94 97 1011.0
20260506190903 11 0 0.0 0.0 0.00 0.94 0.94 97 1010.9
20260506190003 11 0 0.0 0.0 0.00 0.94 0.94 96 1010.9
20260506185403 11 0 0.0 0.0 0.00 0.94 0.94 95 1011.0
20260506184503 11 0 0.0 0.0 0.00 0.94 0.94 95 1010.6
20260506183603 11 0 0.0 0.0 0.00 0.94 0.94 95 1010.6
20260506182703 11 0 0.0 0.0 0.00 0.94 0.94 94 1010.5
20260506181803 12 0 0.0 0.0 0.00 0.94 0.94 93 1010.3
20260506180903 12 0 0.0 0.0 0.00 0.94 0.94 94 1010.4
20260506180004 12 0 0.0 0.0 0.00 0.94 0.94 94 1010.2
20260506175403 12 0 0.0 0.0 0.00 0.94 0.94 91 1010.1